User: anonymous   Login
Location: Poprad
(49.0500°N, 20.3000°E)
Time: 02:15:43
(UTC+02:00)
Language:

YUBILEINY - Orbit

View from above orbital plane
View from above orbital plane
View from above satellite
View from above satellite

Ground track
Ground track

The orbit data is extracted from the following two-line orbital elements,

1 32953U 08025A   24114.82774314  .00000045  00000-0  25451-3 0  9994
2 32953  82.4984 123.3010 0018520 220.5052 139.4650 12.43139419722377
Epoch (UTC): 23 April 2024 19:51:57
Eccentricity: 0.0018520
inclination: 82.4984°
perigee height: 1479 km
apogee height: 1508 km
right ascension of ascending node: 123.3010°
argument of perigee: 220.5052°
revolutions per day: 12.43139419
mean anomaly at epoch: 139.4650°
orbit number at epoch: 72237

The dashed part of the orbit path shows where the satellite is in the earth's shadow,  

DLR